Flag for U.S.A. Weather past 2 weeks in Fort Lauderdale, Florida, U.S.A.

Now
80 °F

Passing clouds.


Feels Like: 85 °F
Forecast: 79 / 89 °F
Wind: 3 mph from Northwest

Location: Fort Lauderdale / Hollywood International Airport

Current Time: Sep 5, 2015 at 6:41:47 AM

Latest Report: Sep 5, 2015 at 5:53 AM


Visibility: 10 mi

Pressure: 29.94 "Hg

Humidity: 87%

Dew point: 76 °F

Location of Fort LauderdaleLocation

Historic Weather in Fort Lauderdale — Graph

°F

Fort Lauderdale temperature yesterday

Maximum temperature yesterday: 91 °F (at 11:53 AM)
Minimum temperature yesterday: 76 °F (at 5:01 PM)
Average temperature yesterday: 82 °F

Past Weeks' High & Low Weather Summary

 TemperatureHumidityPressure
High92 °F (Aug 23, 12:53 PM)100% (Aug 30, 5:53 AM)30.09 "Hg (Aug 30, 5:53 AM)
Low75 °F (Aug 30, 4:53 AM)57% (Aug 21, 11:53 AM)29.87 "Hg (Aug 24, 5:53 PM)
Average84 °F78%29.97 "Hg
* Reported Aug 21 4:53 AM — Sep 5 4:53 AM, Fort Lauderdale, Weather by CustomWeather, © 2015

Note: Actual official high and low records may vary slightly from our data, if they occured in-between our weather recording intervals... More about our weather records

Advertising

Fort Lauderdale weather history for previous 24 hours

 ConditionsComfort  
Time TempWeatherWind HumidityBarometerVisibility
4:53 AM
Sat, Sep 5
81 °FPassing clouds.No wind85%29.93 "Hg10 mi
3:53 AM80 °FPassing clouds.No wind87%29.93 "Hg10 mi
2:53 AM78 °FPassing clouds.3 mph93%29.93 "Hg10 mi
1:53 AM78 °FPassing clouds.3 mph93%29.94 "Hg10 mi
12:53 AM78 °FPassing clouds.3 mph90%29.95 "Hg10 mi
11:53 PM
Fri, Sep 4
78 °FPassing clouds.6 mph90%29.96 "Hg10 mi
10:53 PM79 °FPartly cloudy.3 mph90%29.97 "Hg10 mi
9:53 PM79 °FPassing clouds.No wind90%29.96 "Hg10 mi
8:53 PM79 °FMostly cloudy.5 mph90%29.95 "Hg10 mi
7:53 PM77 °FMostly cloudy.7 mph96%29.93 "Hg10 mi
6:53 PM77 °FBroken clouds.6 mph85%29.93 "Hg10 mi
5:53 PM76 °FThunderstorms. Partly sunny.9 mph85%29.93 "Hg8 mi
5:01 PM76 °FThunderstorms. Cloudy.21 mph88%29.95 "Hg3 mi
3:53 PM89 °FBroken clouds.14 mph70%29.91 "Hg10 mi
2:53 PM88 °FPartly sunny.9 mph78%29.93 "Hg10 mi
1:59 PM87 °FThunderstorms. Partly sunny.10 mph69%29.95 "Hg10 mi
12:53 PM91 °FPartly sunny.5 mph60%29.97 "Hg10 mi
11:53 AM91 °FPartly sunny.5 mph64%29.98 "Hg10 mi
10:53 AM89 °FScattered clouds.8 mph65%29.99 "Hg10 mi
9:53 AM86 °FPassing clouds.9 mph67%29.98 "Hg10 mi
8:53 AM83 °FPassing clouds.5 mph77%29.97 "Hg10 mi
7:53 AM80 °FPassing clouds.5 mph85%29.96 "Hg10 mi
6:53 AM79 °FPassing clouds.5 mph88%29.95 "Hg10 mi
Weather by CustomWeather, © 2015

See weather overviewHow to use our weather pages